Time,TemperatureF,DewpointF,PressureIn,WindDirection,WindDirectionDegrees,WindSpeedMPH,WindSpeedGustMPH,Humidity,HourlyPrecipIn,Conditions,Clouds,dailyrainin,SoftwareType,DateUTC
2013-04-02 00:00:00,46.5,29.4,30.02,WNW,301,0.0,3.0,51,0.00,,---,0.00,VWS V14.01,2013-04-02 04:00:00,
2013-04-02 00:02:00,46.4,29.3,30.02,NW,314,3.0,4.0,51,0.00,,---,0.00,VWS V14.01,2013-04-02 04:02:00,
2013-04-02 00:07:00,46.4,29.3,30.02,NW,326,2.0,4.0,51,0.00,,---,0.00,VWS V14.01,2013-04-02 04:07:00,
2013-04-02 00:12:00,46.4,29.3,30.02,NW,319,3.0,4.0,51,0.00,,---,0.00,VWS V14.01,2013-04-02 04:12:00,
2013-04-02 00:17:00,46.3,29.2,30.02,NW,312,0.0,5.0,51,0.00,,---,0.00,VWS V14.01,2013-04-02 04:17:00,
2013-04-02 00:22:00,46.1,29.5,30.02,NW,310,0.0,5.0,52,0.00,,---,0.00,VWS V14.01,2013-04-02 04:22:00,
2013-04-02 00:27:00,45.9,29.3,30.02,NW,314,0.0,5.0,52,0.00,,---,0.00,VWS V14.01,2013-04-02 04:27:00,
2013-04-02 00:30:00,45.9,29.3,30.02,NW,313,3.0,5.0,52,0.00,,---,0.00,VWS V14.01,2013-04-02 04:30:00,
2013-04-02 00:32:00,45.9,29.3,30.02,NW,313,0.0,3.0,52,0.00,,---,0.00,VWS V14.01,2013-04-02 04:32:00,
2013-04-02 00:37:00,45.7,29.1,30.02,NW,313,0.0,3.0,52,0.00,,---,0.00,VWS V14.01,2013-04-02 04:37:00,
2013-04-02 00:42:00,45.5,28.9,30.02,NW,318,0.0,3.0,52,0.00,,---,0.00,VWS V14.01,2013-04-02 04:42:00,
2013-04-02 00:47:00,45.4,28.8,30.03,NW,313,2.0,3.0,52,0.00,,---,0.00,VWS V14.01,2013-04-02 04:47:00,
2013-04-02 00:52:00,45.2,28.6,30.03,NW,309,0.0,3.0,52,0.00,,---,0.00,VWS V14.01,2013-04-02 04:52:00,
2013-04-02 00:57:00,44.9,28.4,30.03,NW,309,3.0,3.0,52,0.00,,---,0.00,VWS V14.01,2013-04-02 04:57:00,
2013-04-02 01:00:00,45.0,28.9,30.03,WNW,298,3.0,5.0,53,0.00,,---,0.00,VWS V14.01,2013-04-02 05:00:00,
2013-04-02 01:02:00,44.9,28.4,30.03,NW,311,0.0,4.0,52,0.00,,---,0.00,VWS V14.01,2013-04-02 05:02:00,
2013-04-02 01:08:00,44.7,28.6,30.04,NW,308,0.0,4.0,53,0.00,,---,0.00,VWS V14.01,2013-04-02 05:08:00,
2013-04-02 01:13:00,44.5,28.5,30.04,NW,308,2.0,4.0,53,0.00,,---,0.00,VWS V14.01,2013-04-02 05:13:00,
2013-04-02 01:18:00,44.3,28.3,30.04,NW,309,0.0,4.0,53,0.00,,---,0.00,VWS V14.01,2013-04-02 05:18:00,
2013-04-02 01:23:00,44.3,28.3,30.03,NW,311,0.0,4.0,53,0.00,,---,0.00,VWS V14.01,2013-04-02 05:23:00,
2013-04-02 01:28:00,44.0,28.0,30.04,NW,315,2.0,2.0,53,0.00,,---,0.00,VWS V14.01,2013-04-02 05:28:00,
2013-04-02 01:30:00,44.0,28.0,30.04,NW,315,2.0,4.0,53,0.00,,---,0.00,VWS V14.01,2013-04-02 05:30:00,
2013-04-02 01:33:00,43.9,28.4,30.04,WNW,302,0.0,3.0,54,0.00,,---,0.00,VWS V14.01,2013-04-02 05:33:00,
2013-04-02 01:38:00,43.8,27.8,30.04,NW,315,1.0,3.0,53,0.00,,---,0.00,VWS V14.01,2013-04-02 05:38:00,
2013-04-02 01:43:00,43.7,28.2,30.04,NW,315,0.0,3.0,54,0.00,,---,0.00,VWS V14.01,2013-04-02 05:43:00,
2013-04-02 01:48:00,43.5,28.0,30.04,NW,315,0.0,3.0,54,0.00,,---,0.00,VWS V14.01,2013-04-02 05:48:00,
2013-04-02 01:53:00,43.4,27.9,30.05,NW,306,0.0,3.0,54,0.00,,---,0.00,VWS V14.01,2013-04-02 05:53:00,
2013-04-02 01:58:00,43.3,27.8,30.05,NW,306,0.0,0.0,54,0.00,,---,0.00,VWS V14.01,2013-04-02 05:58:00,
2013-04-02 02:00:00,43.3,27.8,30.05,NW,306,0.0,3.0,54,0.00,,---,0.00,VWS V14.01,2013-04-02 06:00:00,
2013-04-02 02:03:00,43.2,28.1,30.05,WNW,303,0.0,2.0,55,0.00,,---,0.00,VWS V14.01,2013-04-02 06:03:00,
2013-04-02 02:08:00,43.1,28.0,30.05,WNW,303,0.0,2.0,55,0.00,,---,0.00,VWS V14.01,2013-04-02 06:08:00,
2013-04-02 02:13:00,43.1,28.0,30.05,WNW,298,0.0,3.0,55,0.00,,---,0.00,VWS V14.01,2013-04-02 06:13:00,
2013-04-02 02:18:00,43.0,28.0,30.05,WNW,298,0.0,3.0,55,0.00,,---,0.00,VWS V14.01,2013-04-02 06:18:00,
2013-04-02 02:23:00,43.0,28.0,30.05,WNW,298,0.0,3.0,55,0.00,,---,0.00,VWS V14.01,2013-04-02 06:23:00,
2013-04-02 02:28:00,42.9,27.9,30.05,WNW,298,0.0,1.0,55,0.00,,---,0.00,VWS V14.01,2013-04-02 06:28:00,
2013-04-02 02:30:00,42.9,27.9,30.05,WNW,298,1.0,3.0,55,0.00,,---,0.00,VWS V14.01,2013-04-02 06:30:00,
2013-04-02 02:33:00,42.8,28.2,30.05,WNW,298,2.0,3.0,56,0.00,,---,0.00,VWS V14.01,2013-04-02 06:33:00,
2013-04-02 02:38:00,42.8,28.2,30.06,WNW,293,0.0,3.0,56,0.00,,---,0.00,VWS V14.01,2013-04-02 06:38:00,
2013-04-02 02:43:00,42.7,28.1,30.06,WNW,293,0.0,3.0,56,0.00,,---,0.00,VWS V14.01,2013-04-02 06:43:00,
2013-04-02 02:48:00,42.5,27.9,30.06,WNW,293,0.0,3.0,56,0.00,,---,0.00,VWS V14.01,2013-04-02 06:48:00,
2013-04-02 02:53:00,42.5,28.4,30.06,WNW,293,0.0,3.0,57,0.00,,---,0.00,VWS V14.01,2013-04-02 06:53:00,
2013-04-02 02:58:00,42.3,29.4,30.06,WNW,293,0.0,0.0,60,0.00,,---,0.00,VWS V14.01,2013-04-02 06:58:00,
2013-04-02 03:00:00,42.4,29.5,30.06,WNW,293,0.0,3.0,60,0.00,,---,0.00,VWS V14.01,2013-04-02 07:00:00,
2013-04-02 03:04:00,41.5,29.5,30.06,WNW,293,0.0,0.0,62,0.00,,---,0.00,VWS V14.01,2013-04-02 07:04:00,
2013-04-02 03:09:00,40.7,29.1,30.06,WNW,293,0.0,0.0,63,0.00,,---,0.00,VWS V14.01,2013-04-02 07:09:00,
2013-04-02 03:14:00,40.1,28.1,30.06,WNW,293,0.0,1.0,62,0.00,,---,0.00,VWS V14.01,2013-04-02 07:14:00,
2013-04-02 03:19:00,39.9,28.3,30.06,WNW,293,0.0,1.0,63,0.00,,---,0.00,VWS V14.01,2013-04-02 07:19:00,
2013-04-02 03:24:00,39.7,28.9,30.07,WNW,293,0.0,1.0,65,0.00,,---,0.00,VWS V14.01,2013-04-02 07:24:00,
2013-04-02 03:29:00,39.5,28.4,30.07,WNW,293,0.0,0.0,64,0.00,,---,0.00,VWS V14.01,2013-04-02 07:29:00,
2013-04-02 03:30:00,39.6,28.4,30.07,WNW,293,0.0,1.0,64,0.00,,---,0.00,VWS V14.01,2013-04-02 07:30:00,
2013-04-02 03:34:00,39.3,28.5,30.07,WNW,293,0.0,0.0,65,0.00,,---,0.00,VWS V14.01,2013-04-02 07:34:00,
2013-04-02 03:39:00,38.8,28.8,30.07,WNW,293,0.0,0.0,67,0.00,,---,0.00,VWS V14.01,2013-04-02 07:39:00,
2013-04-02 03:44:00,38.1,28.5,30.07,WNW,293,0.0,0.0,68,0.00,,---,0.00,VWS V14.01,2013-04-02 07:44:00,
2013-04-02 03:49:00,37.5,28.3,30.07,WNW,293,0.0,0.0,69,0.00,,---,0.00,VWS V14.01,2013-04-02 07:49:00,
2013-04-02 03:54:00,37.1,28.2,30.07,WNW,293,0.0,0.0,70,0.00,,---,0.00,VWS V14.01,2013-04-02 07:54:00,
2013-04-02 03:59:00,36.8,28.3,30.07,WNW,293,0.0,0.0,71,0.00,,---,0.00,VWS V14.01,2013-04-02 07:59:00,
2013-04-02 04:00:00,36.9,28.0,30.07,WNW,293,0.0,0.0,70,0.00,,---,0.00,VWS V14.01,2013-04-02 08:00:00,
2013-04-02 04:04:00,36.3,28.1,30.07,WNW,293,0.0,0.0,72,0.00,,---,0.00,VWS V14.01,2013-04-02 08:04:00,
2013-04-02 04:09:00,35.9,27.8,30.07,WNW,293,0.0,0.0,72,0.00,,---,0.00,VWS V14.01,2013-04-02 08:09:00,
2013-04-02 04:14:00,35.6,28.5,30.07,WNW,293,0.0,0.0,75,0.00,,---,0.00,VWS V14.01,2013-04-02 08:14:00,
2013-04-02 04:19:00,35.3,28.2,30.07,WNW,293,0.0,0.0,75,0.00,,---,0.00,VWS V14.01,2013-04-02 08:19:00,
2013-04-02 04:24:00,35.0,27.9,30.07,WNW,293,0.0,0.0,75,0.00,,---,0.00,VWS V14.01,2013-04-02 08:24:00,
2013-04-02 04:29:00,34.5,28.0,30.07,WNW,293,0.0,0.0,77,0.00,,---,0.00,VWS V14.01,2013-04-02 08:29:00,
2013-04-02 04:30:00,34.7,27.9,30.07,WNW,293,0.0,0.0,76,0.00,,---,0.00,VWS V14.01,2013-04-02 08:30:00,
2013-04-02 04:34:00,34.0,27.6,30.07,WNW,293,0.0,0.0,77,0.00,,---,0.00,VWS V14.01,2013-04-02 08:34:00,
2013-04-02 04:39:00,33.5,27.7,30.07,WNW,293,0.0,0.0,79,0.00,,---,0.00,VWS V14.01,2013-04-02 08:39:00,
2013-04-02 04:44:00,33.2,27.7,30.07,WNW,293,0.0,0.0,80,0.00,,---,0.00,VWS V14.01,2013-04-02 08:44:00,
2013-04-02 04:49:00,32.9,27.4,30.07,WNW,293,0.0,0.0,80,0.00,,---,0.00,VWS V14.01,2013-04-02 08:49:00,
2013-04-02 04:54:00,32.5,27.3,30.07,WNW,293,0.0,0.0,81,0.00,,---,0.00,VWS V14.01,2013-04-02 08:54:00,
2013-04-02 04:59:00,32.1,27.2,30.08,WNW,293,0.0,0.0,82,0.00,,---,0.00,VWS V14.01,2013-04-02 08:59:00,
2013-04-02 05:00:00,32.2,27.3,30.07,WNW,293,0.0,0.0,82,0.00,,---,0.00,VWS V14.01,2013-04-02 09:00:00,
2013-04-02 05:04:00,31.8,27.2,30.08,WNW,293,0.0,0.0,83,0.00,,---,0.00,VWS V14.01,2013-04-02 09:04:00,
2013-04-02 05:10:00,31.6,27.3,30.08,WNW,293,0.0,0.0,84,0.00,,---,0.00,VWS V14.01,2013-04-02 09:10:00,
2013-04-02 05:15:00,31.5,27.5,30.08,WNW,293,0.0,0.0,85,0.00,,---,0.00,VWS V14.01,2013-04-02 09:15:00,
2013-04-02 05:20:00,31.5,27.5,30.08,WNW,293,0.0,0.0,85,0.00,,---,0.00,VWS V14.01,2013-04-02 09:20:00,
2013-04-02 05:25:00,31.5,27.5,30.09,WNW,293,0.0,0.0,85,0.00,,---,0.00,VWS V14.01,2013-04-02 09:25:00,
2013-04-02 05:30:00,31.5,27.2,30.09,WNW,293,0.0,0.0,84,0.00,,---,0.00,VWS V14.01,2013-04-02 09:30:00,
2013-04-02 05:35:00,31.3,27.0,30.09,WNW,293,0.0,0.0,84,0.00,,---,0.00,VWS V14.01,2013-04-02 09:35:00,
2013-04-02 05:40:00,31.0,27.0,30.09,WNW,293,0.0,0.0,85,0.00,,---,0.00,VWS V14.01,2013-04-02 09:40:00,
2013-04-02 05:45:00,30.8,27.1,30.10,WNW,293,0.0,0.0,86,0.00,,---,0.00,VWS V14.01,2013-04-02 09:45:00,
2013-04-02 05:50:00,30.5,26.8,30.10,WNW,293,0.0,0.0,86,0.00,,---,0.00,VWS V14.01,2013-04-02 09:50:00,
2013-04-02 05:55:00,30.2,26.8,30.10,WNW,293,0.0,0.0,87,0.00,,---,0.00,VWS V14.01,2013-04-02 09:55:00,
2013-04-02 06:00:00,30.0,26.9,30.11,WNW,293,0.0,0.0,88,0.00,,---,0.00,VWS V14.01,2013-04-02 10:00:00,
2013-04-02 06:05:00,29.9,26.8,30.11,WNW,293,0.0,0.0,88,0.00,,---,0.00,VWS V14.01,2013-04-02 10:05:00,
2013-04-02 06:10:00,29.8,26.7,30.12,WNW,293,0.0,0.0,88,0.00,,---,0.00,VWS V14.01,2013-04-02 10:10:00,
2013-04-02 06:15:00,29.7,26.9,30.12,WNW,293,0.0,0.0,89,0.00,,---,0.00,VWS V14.01,2013-04-02 10:15:00,
2013-04-02 06:20:00,29.6,26.8,30.12,WNW,293,0.0,0.0,89,0.00,,---,0.00,VWS V14.01,2013-04-02 10:20:00,
2013-04-02 06:25:00,29.5,26.7,30.12,WNW,293,0.0,0.0,89,0.00,,---,0.00,VWS V14.01,2013-04-02 10:25:00,
2013-04-02 06:30:00,29.5,26.7,30.12,WNW,293,0.0,0.0,89,0.00,,---,0.00,VWS V14.01,2013-04-02 10:30:00,
2013-04-02 06:35:00,29.6,26.8,30.12,WNW,293,0.0,0.0,89,0.00,,---,0.00,VWS V14.01,2013-04-02 10:35:00,
2013-04-02 06:40:00,29.7,26.6,30.13,WNW,293,0.0,0.0,88,0.00,,---,0.00,VWS V14.01,2013-04-02 10:40:00,
2013-04-02 06:45:00,29.7,26.3,30.13,WNW,293,0.0,0.0,87,0.00,,---,0.00,VWS V14.01,2013-04-02 10:45:00,
2013-04-02 06:50:00,29.8,26.7,30.13,WNW,293,0.0,0.0,88,0.00,,---,0.00,VWS V14.01,2013-04-02 10:50:00,
2013-04-02 06:55:00,29.8,26.7,30.13,East,88,0.0,0.0,88,0.00,,---,0.00,VWS V14.01,2013-04-02 10:55:00,
2013-04-02 07:00:00,29.8,27.0,30.14,East,88,0.0,0.0,89,0.00,,---,0.00,VWS V14.01,2013-04-02 11:00:00,
2013-04-02 07:05:00,29.7,26.6,30.14,East,88,0.0,0.0,88,0.00,,---,0.00,VWS V14.01,2013-04-02 11:05:00,
2013-04-02 07:10:00,29.4,26.3,30.14,East,88,0.0,1.0,88,0.00,,---,0.00,VWS V14.01,2013-04-02 11:10:00,
2013-04-02 07:15:00,29.1,26.3,30.14,East,88,0.0,1.0,89,0.00,,---,0.00,VWS V14.01,2013-04-02 11:15:00,
2013-04-02 07:20:00,28.9,26.1,30.15,East,88,0.0,1.0,89,0.00,,---,0.00,VWS V14.01,2013-04-02 11:20:00,
2013-04-02 07:25:00,28.8,26.0,30.15,East,88,0.0,1.0,89,0.00,,---,0.00,VWS V14.01,2013-04-02 11:25:00,
2013-04-02 07:30:00,28.8,26.2,30.15,East,85,0.0,0.0,90,0.00,,---,0.00,VWS V14.01,2013-04-02 11:30:00,
2013-04-02 07:35:00,28.8,26.2,30.16,East,95,0.0,0.0,90,0.00,,---,0.00,VWS V14.01,2013-04-02 11:35:00,
2013-04-02 07:40:00,28.8,26.5,30.16,East,95,0.0,0.0,91,0.00,,---,0.00,VWS V14.01,2013-04-02 11:40:00,
2013-04-02 07:45:00,29.1,26.5,30.16,SW,229,0.0,0.0,90,0.00,,---,0.00,VWS V14.01,2013-04-02 11:45:00,
2013-04-02 07:50:00,29.6,26.8,30.17,SW,229,0.0,0.0,89,0.00,,---,0.00,VWS V14.01,2013-04-02 11:50:00,
2013-04-02 07:55:00,30.0,26.9,30.17,SW,229,0.0,1.0,88,0.00,,---,0.00,VWS V14.01,2013-04-02 11:55:00,
2013-04-02 08:00:00,30.5,27.1,30.17,SW,229,0.0,0.0,87,0.00,,---,0.00,VWS V14.01,2013-04-02 12:00:00,
2013-04-02 08:05:00,31.0,27.6,30.17,SW,229,0.0,0.0,87,0.00,,---,0.00,VWS V14.01,2013-04-02 12:05:00,
2013-04-02 08:10:00,31.9,27.9,30.18,SW,235,0.0,1.0,85,0.00,,---,0.00,VWS V14.01,2013-04-02 12:10:00,
2013-04-02 08:15:00,33.3,27.8,30.18,WNW,287,0.0,2.0,80,0.00,,---,0.00,VWS V14.01,2013-04-02 12:15:00,
2013-04-02 08:20:00,34.4,27.6,30.18,WNW,287,0.0,2.0,76,0.00,,---,0.00,VWS V14.01,2013-04-02 12:20:00,
2013-04-02 08:25:00,35.1,28.0,30.18,WNW,293,0.0,2.0,75,0.00,,---,0.00,VWS V14.01,2013-04-02 12:25:00,
2013-04-02 08:30:00,35.9,27.8,30.18,WNW,293,0.0,0.0,72,0.00,,---,0.00,VWS V14.01,2013-04-02 12:30:00,
2013-04-02 08:35:00,36.7,28.2,30.18,SSW,211,0.0,0.0,71,0.00,,---,0.00,VWS V14.01,2013-04-02 12:35:00,
2013-04-02 08:41:00,37.6,28.0,30.18,SSW,211,0.0,0.0,68,0.00,,---,0.00,VWS V14.01,2013-04-02 12:41:00,
2013-04-02 08:45:00,38.6,27.1,30.18,WSW,253,0.0,2.0,63,0.00,,---,0.00,VWS V14.01,2013-04-02 12:45:00,
2013-04-02 08:51:00,40.0,26.8,30.18,WNW,283,2.0,2.0,59,0.00,,---,0.00,VWS V14.01,2013-04-02 12:51:00,
2013-04-02 08:56:00,41.3,26.4,30.18,WNW,299,4.0,5.0,55,0.00,,---,0.00,VWS V14.01,2013-04-02 12:56:00,
2013-04-02 09:00:00,41.7,24.9,30.18,WNW,289,4.0,5.0,51,0.00,,---,0.00,VWS V14.01,2013-04-02 13:00:00,
2013-04-02 09:01:00,42.3,24.5,30.18,NW,304,2.0,6.0,49,0.00,,---,0.00,VWS V14.01,2013-04-02 13:01:00,
2013-04-02 09:06:00,43.1,25.3,30.18,WNW,302,0.0,6.0,49,0.00,,---,0.00,VWS V14.01,2013-04-02 13:06:00,
2013-04-02 09:11:00,43.6,24.2,30.18,NW,319,2.0,6.0,46,0.00,,---,0.00,VWS V14.01,2013-04-02 13:11:00,
2013-04-02 09:16:00,44.0,24.6,30.18,WNW,294,3.0,6.0,46,0.00,,---,0.00,VWS V14.01,2013-04-02 13:16:00,
2013-04-02 09:21:00,44.3,23.2,30.18,NW,322,4.0,9.0,43,0.00,,---,0.00,VWS V14.01,2013-04-02 13:21:00,
2013-04-02 09:26:00,44.5,23.4,30.18,NW,307,5.0,9.0,43,0.00,,---,0.00,VWS V14.01,2013-04-02 13:26:00,
2013-04-02 09:30:00,44.6,23.5,30.18,WNW,298,3.0,9.0,43,0.00,,---,0.00,VWS V14.01,2013-04-02 13:30:00,
2013-04-02 09:31:00,44.8,23.7,30.17,WNW,295,0.0,4.0,43,0.00,,---,0.00,VWS V14.01,2013-04-02 13:31:00,
2013-04-02 09:36:00,45.2,24.6,30.18,WNW,288,3.0,6.0,44,0.00,,---,0.00,VWS V14.01,2013-04-02 13:36:00,
2013-04-02 09:41:00,45.5,23.2,30.17,West,273,2.0,7.0,41,0.00,,---,0.00,VWS V14.01,2013-04-02 13:41:00,
2013-04-02 09:46:00,45.4,23.1,30.17,NW,317,5.0,9.0,41,0.00,,---,0.00,VWS V14.01,2013-04-02 13:46:00,
2013-04-02 09:51:00,45.7,24.5,30.17,NW,306,6.0,9.0,43,0.00,,---,0.00,VWS V14.01,2013-04-02 13:51:00,
2013-04-02 09:56:00,46.0,23.6,30.17,WNW,282,3.0,9.0,41,0.00,,---,0.00,VWS V14.01,2013-04-02 13:56:00,
2013-04-02 10:00:00,46.0,23.0,30.17,WNW,290,0.0,9.0,40,0.00,,---,0.00,VWS V14.01,2013-04-02 14:00:00,
2013-04-02 10:01:00,46.0,23.6,30.17,WNW,282,3.0,6.0,41,0.00,,---,0.00,VWS V14.01,2013-04-02 14:01:00,
2013-04-02 10:06:00,46.0,24.2,30.17,West,279,1.0,6.0,42,0.00,,---,0.00,VWS V14.01,2013-04-02 14:06:00,
2013-04-02 10:12:00,46.2,23.8,30.17,NNW,344,3.0,10.0,41,0.00,,---,0.00,VWS V14.01,2013-04-02 14:12:00,
2013-04-02 10:17:00,46.5,24.1,30.17,West,259,0.0,10.0,41,0.00,,---,0.00,VWS V14.01,2013-04-02 14:17:00,
2013-04-02 10:22:00,46.8,24.4,30.17,WNW,285,0.0,10.0,41,0.00,,---,0.00,VWS V14.01,2013-04-02 14:22:00,
2013-04-02 10:27:00,46.9,23.3,30.17,WNW,303,2.0,10.0,39,0.00,,---,0.00,VWS V14.01,2013-04-02 14:27:00,
2013-04-02 10:30:00,46.9,22.6,30.17,WNW,296,3.0,10.0,38,0.00,,---,0.00,VWS V14.01,2013-04-02 14:30:00,
2013-04-02 10:32:00,47.0,22.7,30.17,WNW,289,1.0,6.0,38,0.00,,---,0.00,VWS V14.01,2013-04-02 14:32:00,
2013-04-02 10:37:00,47.3,23.0,30.17,WSW,254,2.0,9.0,38,0.00,,---,0.00,VWS V14.01,2013-04-02 14:37:00,
2013-04-02 10:42:00,47.8,22.8,30.17,WSW,258,3.0,9.0,37,0.00,,---,0.00,VWS V14.01,2013-04-02 14:42:00,
2013-04-02 10:47:00,47.9,22.9,30.17,WNW,285,5.0,9.0,37,0.00,,---,0.00,VWS V14.01,2013-04-02 14:47:00,
2013-04-02 10:52:00,47.7,22.1,30.17,West,273,3.0,12.0,36,0.00,,---,0.00,VWS V14.01,2013-04-02 14:52:00,
2013-04-02 10:57:00,47.8,22.8,30.17,West,267,4.0,12.0,37,0.00,,---,0.00,VWS V14.01,2013-04-02 14:57:00,
2013-04-02 11:00:00,47.8,22.8,30.17,NW,304,7.0,12.0,37,0.00,,---,0.00,VWS V14.01,2013-04-02 15:00:00,
2013-04-02 11:02:00,47.8,20.8,30.17,SSW,212,4.0,9.0,34,0.00,,---,0.00,VWS V14.01,2013-04-02 15:02:00,
2013-04-02 11:07:00,47.8,21.5,30.17,NW,307,3.0,9.0,35,0.00,,---,0.00,VWS V14.01,2013-04-02 15:07:00,
2013-04-02 11:12:00,48.3,23.3,30.18,NNW,338,0.0,9.0,37,0.00,,---,0.00,VWS V14.01,2013-04-02 15:12:00,
2013-04-02 11:17:00,48.5,22.1,30.17,WSW,258,0.0,9.0,35,0.00,,---,0.00,VWS V14.01,2013-04-02 15:17:00,
2013-04-02 11:22:00,48.6,22.9,30.17,WNW,298,6.0,9.0,36,0.00,,---,0.00,VWS V14.01,2013-04-02 15:22:00,
2013-04-02 11:27:00,48.8,21.7,30.17,NW,317,0.0,9.0,34,0.00,,---,0.00,VWS V14.01,2013-04-02 15:27:00,
2013-04-02 11:30:00,48.8,21.7,30.17,NW,317,0.0,9.0,34,0.00,,---,0.00,VWS V14.01,2013-04-02 15:30:00,
2013-04-02 11:32:00,48.4,22.7,30.17,WSW,251,0.0,5.0,36,0.00,,---,0.00,VWS V14.01,2013-04-02 15:32:00,
2013-04-02 11:38:00,48.9,22.5,30.17,WNW,296,4.0,7.0,35,0.00,,---,0.00,VWS V14.01,2013-04-02 15:38:00,
2013-04-02 11:43:00,49.0,22.6,30.17,WNW,299,5.0,12.0,35,0.00,,---,0.00,VWS V14.01,2013-04-02 15:43:00,
2013-04-02 11:48:00,49.3,22.1,30.17,WNW,286,4.0,12.0,34,0.00,,---,0.00,VWS V14.01,2013-04-02 15:48:00,
2013-04-02 11:53:00,48.8,21.7,30.17,WNW,292,3.0,12.0,34,0.00,,---,0.00,VWS V14.01,2013-04-02 15:53:00,
2013-04-02 11:58:00,49.0,23.2,30.16,NNW,333,1.0,1.0,36,0.00,,---,0.00,VWS V14.01,2013-04-02 15:58:00,
2013-04-02 12:00:00,48.9,22.5,30.16,SSE,157,1.0,12.0,35,0.00,,---,0.00,VWS V14.01,2013-04-02 16:00:00,
2013-04-02 12:03:00,49.7,21.8,30.16,NNW,339,4.0,9.0,33,0.00,,---,0.00,VWS V14.01,2013-04-02 16:03:00,
2013-04-02 12:08:00,49.3,20.7,30.16,NW,315,6.0,12.0,32,0.00,,---,0.00,VWS V14.01,2013-04-02 16:08:00,
2013-04-02 12:13:00,48.8,22.4,30.16,NNW,336,7.0,12.0,35,0.00,,---,0.00,VWS V14.01,2013-04-02 16:13:00,
2013-04-02 12:18:00,49.1,22.6,30.16,WNW,300,5.0,12.0,35,0.00,,---,0.00,VWS V14.01,2013-04-02 16:18:00,
2013-04-02 12:23:00,49.5,22.3,30.16,WNW,297,9.0,12.0,34,0.00,,---,0.00,VWS V14.01,2013-04-02 16:23:00,
2013-04-02 12:28:00,50.0,23.4,30.16,West,260,2.0,4.0,35,0.00,,---,0.00,VWS V14.01,2013-04-02 16:28:00,
2013-04-02 12:30:00,49.9,23.4,30.16,NW,304,4.0,12.0,35,0.00,,---,0.00,VWS V14.01,2013-04-02 16:30:00,
2013-04-02 12:33:00,50.2,24.3,30.16,WNW,300,3.0,10.0,36,0.00,,---,0.00,VWS V14.01,2013-04-02 16:33:00,
2013-04-02 12:38:00,50.0,23.4,30.15,West,281,0.0,11.0,35,0.00,,---,0.00,VWS V14.01,2013-04-02 16:38:00,
2013-04-02 12:43:00,50.6,25.3,30.15,WNW,296,2.0,11.0,37,0.00,,---,0.00,VWS V14.01,2013-04-02 16:43:00,
2013-04-02 12:48:00,50.8,24.1,30.15,West,278,11.0,13.0,35,0.00,,---,0.00,VWS V14.01,2013-04-02 16:48:00,
2013-04-02 12:53:00,50.1,23.5,30.16,WNW,302,0.0,13.0,35,0.00,,---,0.00,VWS V14.01,2013-04-02 16:53:00,
2013-04-02 12:58:00,50.5,23.2,30.15,SE,136,3.0,6.0,34,0.00,,---,0.00,VWS V14.01,2013-04-02 16:58:00,
2013-04-02 13:00:00,50.3,24.4,30.15,WNW,282,4.0,13.0,36,0.00,,---,0.00,VWS V14.01,2013-04-02 17:00:00,
2013-04-02 13:03:00,50.3,23.0,30.15,WSW,256,3.0,13.0,34,0.00,,---,0.00,VWS V14.01,2013-04-02 17:03:00,
2013-04-02 13:08:00,51.0,24.3,30.14,NW,313,4.0,13.0,35,0.00,,---,0.00,VWS V14.01,2013-04-02 17:08:00,
2013-04-02 13:13:00,51.0,22.9,30.15,West,279,2.0,13.0,33,0.00,,---,0.00,VWS V14.01,2013-04-02 17:13:00,
2013-04-02 13:19:00,50.9,22.1,30.14,NW,313,5.0,13.0,32,0.00,,---,0.00,VWS V14.01,2013-04-02 17:19:00,
2013-04-02 13:24:00,50.9,22.8,30.14,NW,321,3.0,13.0,33,0.00,,---,0.00,VWS V14.01,2013-04-02 17:24:00,
2013-04-02 13:29:00,50.9,22.1,30.14,NW,311,9.0,12.0,32,0.00,,---,0.00,VWS V14.01,2013-04-02 17:29:00,
2013-04-02 13:30:00,50.9,22.1,30.14,WNW,295,7.0,16.0,32,0.00,,---,0.00,VWS V14.01,2013-04-02 17:30:00,
2013-04-02 13:34:00,51.1,23.0,30.15,NW,313,3.0,12.0,33,0.00,,---,0.00,VWS V14.01,2013-04-02 17:34:00,
2013-04-02 13:39:00,51.5,24.8,30.14,WNW,286,3.0,12.0,35,0.00,,---,0.00,VWS V14.01,2013-04-02 17:39:00,
2013-04-02 13:44:00,51.7,22.1,30.14,WNW,295,3.0,12.0,31,0.00,,---,0.00,VWS V14.01,2013-04-02 17:44:00,
2013-04-02 13:49:00,51.5,22.6,30.14,West,275,2.0,12.0,32,0.00,,---,0.00,VWS V14.01,2013-04-02 17:49:00,
2013-04-02 13:54:00,51.2,22.4,30.14,WNW,283,4.0,13.0,32,0.00,,---,0.00,VWS V14.01,2013-04-02 17:54:00,
2013-04-02 13:59:00,51.2,20.9,30.13,NW,312,9.0,11.0,30,0.00,,---,0.00,VWS V14.01,2013-04-02 17:59:00,
2013-04-02 14:00:00,51.2,20.9,30.13,WNW,290,9.0,13.0,30,0.00,,---,0.00,VWS V14.01,2013-04-02 18:00:00,
2013-04-02 14:04:00,51.1,23.0,30.13,WNW,296,1.0,14.0,33,0.00,,---,0.00,VWS V14.01,2013-04-02 18:04:00,
2013-04-02 14:09:00,51.4,22.5,30.13,WSW,238,4.0,14.0,32,0.00,,---,0.00,VWS V14.01,2013-04-02 18:09:00,
2013-04-02 14:14:00,52.1,22.4,30.13,WNW,287,4.0,14.0,31,0.00,,---,0.00,VWS V14.01,2013-04-02 18:14:00,
2013-04-02 14:19:00,52.1,21.6,30.12,WNW,290,2.0,14.0,30,0.00,,---,0.00,VWS V14.01,2013-04-02 18:19:00,
2013-04-02 14:24:00,52.5,22.0,30.12,SSW,204,6.0,14.0,30,0.00,,---,0.00,VWS V14.01,2013-04-02 18:24:00,
2013-04-02 14:29:00,52.5,21.2,30.12,WNW,286,5.0,9.0,29,0.00,,---,0.00,VWS V14.01,2013-04-02 18:29:00,
2013-04-02 14:30:00,52.6,22.1,30.12,West,274,4.0,14.0,30,0.00,,---,0.00,VWS V14.01,2013-04-02 18:30:00,
2013-04-02 14:34:00,51.9,22.2,30.12,West,276,4.0,14.0,31,0.00,,---,0.00,VWS V14.01,2013-04-02 18:34:00,
2013-04-02 14:39:00,52.4,23.4,30.12,WNW,303,0.0,14.0,32,0.00,,---,0.00,VWS V14.01,2013-04-02 18:39:00,
2013-04-02 14:44:00,53.2,21.8,30.12,WNW,291,4.0,14.0,29,0.00,,---,0.00,VWS V14.01,2013-04-02 18:44:00,
2013-04-02 14:49:00,53.2,23.4,30.11,West,279,6.0,14.0,31,0.00,,---,0.00,VWS V14.01,2013-04-02 18:49:00,
2013-04-02 14:54:00,52.8,19.8,30.11,WNW,301,9.0,14.0,27,0.00,,---,0.00,VWS V14.01,2013-04-02 18:54:00,
2013-04-02 15:00:00,52.7,20.5,30.11,NW,317,5.0,10.0,28,0.00,,---,0.00,VWS V14.01,2013-04-02 19:00:00,
2013-04-02 15:05:00,52.6,18.7,30.11,WNW,289,2.0,13.0,26,0.00,,---,0.00,VWS V14.01,2013-04-02 19:05:00,
2013-04-02 15:10:00,53.0,20.8,30.11,WNW,302,1.0,13.0,28,0.00,,---,0.00,VWS V14.01,2013-04-02 19:10:00,
2013-04-02 15:15:00,53.1,21.7,30.11,WSW,239,3.0,13.0,29,0.00,,---,0.00,VWS V14.01,2013-04-02 19:15:00,
2013-04-02 15:20:00,53.2,20.1,30.11,NW,309,6.0,13.0,27,0.00,,---,0.00,VWS V14.01,2013-04-02 19:20:00,
2013-04-02 15:25:00,53.1,20.0,30.10,NW,312,7.0,13.0,27,0.00,,---,0.00,VWS V14.01,2013-04-02 19:25:00,
2013-04-02 15:30:00,53.2,21.0,30.10,West,276,4.0,6.0,28,0.00,,---,0.00,VWS V14.01,2013-04-02 19:30:00,
2013-04-02 15:35:00,53.2,21.0,30.10,West,267,2.0,11.0,28,0.00,,---,0.00,VWS V14.01,2013-04-02 19:35:00,
2013-04-02 15:40:00,53.3,21.9,30.09,West,260,4.0,14.0,29,0.00,,---,0.00,VWS V14.01,2013-04-02 19:40:00,
2013-04-02 15:45:00,54.0,19.0,30.10,West,269,5.0,14.0,25,0.00,,---,0.00,VWS V14.01,2013-04-02 19:45:00,
2013-04-02 15:50:00,53.6,17.7,30.09,NW,309,10.0,14.0,24,0.00,,---,0.00,VWS V14.01,2013-04-02 19:50:00,
2013-04-02 15:55:00,53.4,17.5,30.09,NNW,335,3.0,14.0,24,0.00,,---,0.00,VWS V14.01,2013-04-02 19:55:00,
2013-04-02 16:00:00,53.6,17.7,30.09,SW,235,3.0,14.0,24,0.00,,---,0.00,VWS V14.01,2013-04-02 20:00:00,
2013-04-02 16:05:00,53.7,16.8,30.09,NW,311,1.0,14.0,23,0.00,,---,0.00,VWS V14.01,2013-04-02 20:05:00,
2013-04-02 16:10:00,53.9,17.0,30.09,WNW,303,6.0,14.0,23,0.00,,---,0.00,VWS V14.01,2013-04-02 20:10:00,
2013-04-02 16:15:00,53.7,16.8,30.09,WNW,282,4.0,14.0,23,0.00,,---,0.00,VWS V14.01,2013-04-02 20:15:00,
2013-04-02 16:20:00,54.2,17.2,30.09,WNW,292,3.0,14.0,23,0.00,,---,0.00,VWS V14.01,2013-04-02 20:20:00,
2013-04-02 16:25:00,54.0,17.1,30.09,NW,322,4.0,14.0,23,0.00,,---,0.00,VWS V14.01,2013-04-02 20:25:00,
2013-04-02 16:30:00,54.1,16.1,30.09,WNW,300,4.0,10.0,22,0.00,,---,0.00,VWS V14.01,2013-04-02 20:30:00,
2013-04-02 16:35:00,53.9,17.0,30.09,WNW,290,3.0,10.0,23,0.00,,---,0.00,VWS V14.01,2013-04-02 20:35:00,
2013-04-02 16:41:00,54.3,16.3,30.09,West,265,4.0,10.0,22,0.00,,---,0.00,VWS V14.01,2013-04-02 20:41:00,
2013-04-02 16:46:00,54.6,17.6,30.09,West,277,0.0,10.0,23,0.00,,---,0.00,VWS V14.01,2013-04-02 20:46:00,
2013-04-02 16:51:00,54.8,16.7,30.09,West,264,0.0,11.0,22,0.00,,---,0.00,VWS V14.01,2013-04-02 20:51:00,
2013-04-02 16:56:00,54.9,16.8,30.09,WSW,256,2.0,11.0,22,0.00,,---,0.00,VWS V14.01,2013-04-02 20:56:00,
2013-04-02 17:00:00,55.0,16.9,30.09,WNW,290,3.0,11.0,22,0.00,,---,0.00,VWS V14.01,2013-04-02 21:00:00,
2013-04-02 17:01:00,54.9,17.8,30.09,WNW,284,10.0,12.0,23,0.00,,---,0.00,VWS V14.01,2013-04-02 21:01:00,
2013-04-02 17:06:00,54.3,15.2,30.09,NW,313,3.0,13.0,21,0.00,,---,0.00,VWS V14.01,2013-04-02 21:06:00,
2013-04-02 17:11:00,54.4,16.4,30.09,NW,304,9.0,13.0,22,0.00,,---,0.00,VWS V14.01,2013-04-02 21:11:00,
2013-04-02 17:17:00,54.3,15.2,30.09,West,279,7.0,13.0,21,0.00,,---,0.00,VWS V14.01,2013-04-02 21:17:00,
2013-04-02 17:22:00,54.1,16.1,30.09,WNW,290,5.0,13.0,22,0.00,,---,0.00,VWS V14.01,2013-04-02 21:22:00,
2013-04-02 17:27:00,54.4,16.4,30.10,NNW,330,9.0,13.0,22,0.00,,---,0.00,VWS V14.01,2013-04-02 21:27:00,
2013-04-02 17:30:00,54.4,16.4,30.10,NW,315,7.0,13.0,22,0.00,,---,0.00,VWS V14.01,2013-04-02 21:30:00,
2013-04-02 17:32:00,54.6,17.6,30.10,West,279,3.0,7.0,23,0.00,,---,0.00,VWS V14.01,2013-04-02 21:32:00,
2013-04-02 17:37:00,54.6,16.5,30.10,WNW,302,5.0,10.0,22,0.00,,---,0.00,VWS V14.01,2013-04-02 21:37:00,
2013-04-02 17:42:00,54.6,16.5,30.10,WNW,296,5.0,10.0,22,0.00,,---,0.00,VWS V14.01,2013-04-02 21:42:00,
2013-04-02 17:47:00,54.5,16.5,30.10,WNW,296,2.0,11.0,22,0.00,,---,0.00,VWS V14.01,2013-04-02 21:47:00,
2013-04-02 17:52:00,54.3,19.2,30.10,WSW,254,1.0,11.0,25,0.00,,---,0.00,VWS V14.01,2013-04-02 21:52:00,
2013-04-02 17:57:00,54.2,19.2,30.10,WSW,254,1.0,11.0,25,0.00,,---,0.00,VWS V14.01,2013-04-02 21:57:00,
2013-04-02 18:00:00,54.2,18.2,30.10,West,272,1.0,11.0,24,0.00,,---,0.00,VWS V14.01,2013-04-02 22:00:00,
2013-04-02 18:02:00,54.1,18.1,30.10,WNW,302,7.0,7.0,24,0.00,,---,0.00,VWS V14.01,2013-04-02 22:02:00,
2013-04-02 18:07:00,53.9,18.0,30.10,West,279,3.0,7.0,24,0.00,,---,0.00,VWS V14.01,2013-04-02 22:07:00,
2013-04-02 18:12:00,53.8,17.9,30.10,WNW,296,3.0,7.0,24,0.00,,---,0.00,VWS V14.01,2013-04-02 22:12:00,
2013-04-02 18:17:00,53.7,17.8,30.11,West,260,5.0,7.0,24,0.00,,---,0.00,VWS V14.01,2013-04-02 22:17:00,
2013-04-02 18:22:00,53.7,17.8,30.11,WNW,293,5.0,7.0,24,0.00,,---,0.00,VWS V14.01,2013-04-02 22:22:00,
2013-04-02 18:27:00,53.6,18.6,30.11,WSW,254,0.0,8.0,25,0.00,,---,0.00,VWS V14.01,2013-04-02 22:27:00,
2013-04-02 18:30:00,53.6,18.6,30.11,WSW,254,0.0,8.0,25,0.00,,---,0.00,VWS V14.01,2013-04-02 22:30:00,
2013-04-02 18:32:00,53.7,19.6,30.11,WSW,247,0.0,5.0,26,0.00,,---,0.00,VWS V14.01,2013-04-02 22:32:00,
2013-04-02 18:37:00,53.7,18.7,30.11,NW,309,5.0,5.0,25,0.00,,---,0.00,VWS V14.01,2013-04-02 22:37:00,
2013-04-02 18:42:00,53.6,18.6,30.12,WNW,283,3.0,7.0,25,0.00,,---,0.00,VWS V14.01,2013-04-02 22:42:00,
2013-04-02 18:47:00,53.4,18.5,30.12,WNW,285,0.0,7.0,25,0.00,,---,0.00,VWS V14.01,2013-04-02 22:47:00,
2013-04-02 18:52:00,53.2,18.3,30.12,WNW,286,0.0,7.0,25,0.00,,---,0.00,VWS V14.01,2013-04-02 22:52:00,
2013-04-02 18:57:00,53.1,18.2,30.11,WNW,294,3.0,7.0,25,0.00,,---,0.00,VWS V14.01,2013-04-02 22:57:00,
2013-04-02 19:00:00,53.1,18.2,30.11,WNW,286,3.0,7.0,25,0.00,,---,0.00,VWS V14.01,2013-04-02 23:00:00,
2013-04-02 19:02:00,53.0,18.1,30.11,WNW,296,3.0,5.0,25,0.00,,---,0.00,VWS V14.01,2013-04-02 23:02:00,
2013-04-02 19:07:00,52.9,18.0,30.11,North,5,0.0,5.0,25,0.00,,---,0.00,VWS V14.01,2013-04-02 23:07:00,
2013-04-02 19:12:00,52.7,17.9,30.11,WNW,303,3.0,5.0,25,0.00,,---,0.00,VWS V14.01,2013-04-02 23:12:00,
2013-04-02 19:18:00,52.3,17.5,30.11,West,275,0.0,5.0,25,0.00,,---,0.00,VWS V14.01,2013-04-02 23:18:00,
2013-04-02 19:23:00,51.9,17.2,30.11,West,275,0.0,5.0,25,0.00,,---,0.00,VWS V14.01,2013-04-02 23:23:00,
2013-04-02 19:28:00,51.6,17.0,30.11,West,275,0.0,0.0,25,0.00,,---,0.00,VWS V14.01,2013-04-02 23:28:00,
2013-04-02 19:30:00,51.7,17.0,30.11,West,275,0.0,5.0,25,0.00,,---,0.00,VWS V14.01,2013-04-02 23:30:00,
2013-04-02 19:33:00,51.3,17.6,30.12,West,275,0.0,1.0,26,0.00,,---,0.00,VWS V14.01,2013-04-02 23:33:00,
2013-04-02 19:38:00,50.9,18.1,30.12,WNW,296,0.0,1.0,27,0.00,,---,0.00,VWS V14.01,2013-04-02 23:38:00,
2013-04-02 19:43:00,50.5,17.8,30.12,WNW,296,0.0,1.0,27,0.00,,---,0.00,VWS V14.01,2013-04-02 23:43:00,
2013-04-02 19:48:00,50.1,19.1,30.12,WNW,296,0.0,1.0,29,0.00,,---,0.00,VWS V14.01,2013-04-02 23:48:00,
2013-04-02 19:53:00,49.5,20.1,30.12,WNW,296,0.0,1.0,31,0.00,,---,0.00,VWS V14.01,2013-04-02 23:53:00,
2013-04-02 19:58:00,48.8,18.8,30.13,WNW,296,0.0,0.0,30,0.00,,---,0.00,VWS V14.01,2013-04-02 23:58:00,
2013-04-02 20:00:00,49.0,20.4,30.13,WNW,296,0.0,1.0,32,0.00,,---,0.00,VWS V14.01,2013-04-03 00:00:00,
2013-04-02 20:03:00,48.4,21.3,30.13,WNW,296,0.0,1.0,34,0.00,,---,0.00,VWS V14.01,2013-04-03 00:03:00,
2013-04-02 20:08:00,47.8,20.8,30.13,WNW,296,0.0,1.0,34,0.00,,---,0.00,VWS V14.01,2013-04-03 00:08:00,
2013-04-02 20:13:00,47.0,23.3,30.13,WNW,296,0.0,1.0,39,0.00,,---,0.00,VWS V14.01,2013-04-03 00:13:00,
2013-04-02 20:18:00,45.9,21.7,30.13,WNW,296,0.0,1.0,38,0.00,,---,0.00,VWS V14.01,2013-04-03 00:18:00,
2013-04-02 20:24:00,45.2,21.1,30.13,WNW,296,0.0,1.0,38,0.00,,---,0.00,VWS V14.01,2013-04-03 00:24:00,
2013-04-02 20:29:00,44.8,20.8,30.14,WNW,296,0.0,0.0,38,0.00,,---,0.00,VWS V14.01,2013-04-03 00:29:00,
2013-04-02 20:30:00,44.9,20.9,30.13,WNW,296,0.0,1.0,38,0.00,,---,0.00,VWS V14.01,2013-04-03 00:30:00,
2013-04-02 20:34:00,44.5,21.1,30.14,WNW,296,0.0,0.0,39,0.00,,---,0.00,VWS V14.01,2013-04-03 00:34:00,
2013-04-02 20:39:00,44.3,20.9,30.14,WNW,296,0.0,0.0,39,0.00,,---,0.00,VWS V14.01,2013-04-03 00:39:00,
2013-04-02 20:44:00,44.0,21.2,30.14,WNW,296,0.0,0.0,40,0.00,,---,0.00,VWS V14.01,2013-04-03 00:44:00,
2013-04-02 20:49:00,43.7,21.0,30.14,WNW,296,0.0,0.0,40,0.00,,---,0.00,VWS V14.01,2013-04-03 00:49:00,
2013-04-02 20:54:00,43.6,20.9,30.15,WNW,296,0.0,0.0,40,0.00,,---,0.00,VWS V14.01,2013-04-03 00:54:00,
2013-04-02 20:59:00,43.3,22.3,30.15,WNW,296,0.0,0.0,43,0.00,,---,0.00,VWS V14.01,2013-04-03 00:59:00,
2013-04-02 21:00:00,43.4,21.9,30.15,WNW,296,0.0,0.0,42,0.00,,---,0.00,VWS V14.01,2013-04-03 01:00:00,
2013-04-02 21:04:00,42.5,23.2,30.15,WNW,296,0.0,0.0,46,0.00,,---,0.00,VWS V14.01,2013-04-03 01:04:00,
2013-04-02 21:09:00,41.6,22.9,30.15,WNW,296,0.0,0.0,47,0.00,,---,0.00,VWS V14.01,2013-04-03 01:09:00,
2013-04-02 21:14:00,40.8,22.1,30.15,WNW,296,0.0,0.0,47,0.00,,---,0.00,VWS V14.01,2013-04-03 01:14:00,
2013-04-02 21:19:00,40.2,23.1,30.15,WNW,296,0.0,0.0,50,0.00,,---,0.00,VWS V14.01,2013-04-03 01:19:00,
2013-04-02 21:24:00,39.6,23.4,30.16,WNW,296,0.0,0.0,52,0.00,,---,0.00,VWS V14.01,2013-04-03 01:24:00,
2013-04-02 21:29:00,39.1,23.4,30.15,WNW,296,0.0,0.0,53,0.00,,---,0.00,VWS V14.01,2013-04-03 01:29:00,
2013-04-02 21:30:00,39.2,23.1,30.15,WNW,296,0.0,0.0,52,0.00,,---,0.00,VWS V14.01,2013-04-03 01:30:00,
2013-04-02 21:34:00,38.8,22.7,30.16,WNW,296,0.0,0.0,52,0.00,,---,0.00,VWS V14.01,2013-04-03 01:34:00,
2013-04-02 21:39:00,38.7,22.6,30.16,WNW,296,0.0,0.0,52,0.00,,---,0.00,VWS V14.01,2013-04-03 01:39:00,
2013-04-02 21:44:00,38.7,23.9,30.16,WNW,296,0.0,0.0,55,0.00,,---,0.00,VWS V14.01,2013-04-03 01:44:00,
2013-04-02 21:49:00,38.7,23.1,30.17,WNW,296,0.0,0.0,53,0.00,,---,0.00,VWS V14.01,2013-04-03 01:49:00,
2013-04-02 21:54:00,38.6,23.8,30.17,WNW,296,0.0,0.0,55,0.00,,---,0.00,VWS V14.01,2013-04-03 01:54:00,
2013-04-02 21:59:00,38.3,24.0,30.17,WNW,296,0.0,0.0,56,0.00,,---,0.00,VWS V14.01,2013-04-03 01:59:00,
2013-04-02 22:00:00,38.5,23.8,30.16,WNW,296,0.0,0.0,55,0.00,,---,0.00,VWS V14.01,2013-04-03 02:00:00,
2013-04-02 22:04:00,37.7,23.9,30.17,WNW,296,0.0,0.0,57,0.00,,---,0.00,VWS V14.01,2013-04-03 02:04:00,
2013-04-02 22:10:00,36.9,24.3,30.17,WNW,296,0.0,0.0,60,0.00,,---,0.00,VWS V14.01,2013-04-03 02:10:00,
2013-04-02 22:15:00,36.3,24.1,30.17,WNW,296,0.0,0.0,61,0.00,,---,0.00,VWS V14.01,2013-04-03 02:15:00,
2013-04-02 22:20:00,36.0,24.6,30.17,WNW,296,0.0,0.0,63,0.00,,---,0.00,VWS V14.01,2013-04-03 02:20:00,
2013-04-02 22:25:00,35.9,24.9,30.17,WNW,296,0.0,0.0,64,0.00,,---,0.00,VWS V14.01,2013-04-03 02:25:00,
2013-04-02 22:30:00,35.9,24.9,30.18,WNW,296,0.0,0.0,64,0.00,,---,0.00,VWS V14.01,2013-04-03 02:30:00,
2013-04-02 22:35:00,35.8,24.8,30.18,WNW,296,0.0,0.0,64,0.00,,---,0.00,VWS V14.01,2013-04-03 02:35:00,
2013-04-02 22:40:00,35.6,24.6,30.18,WNW,296,0.0,0.0,64,0.00,,---,0.00,VWS V14.01,2013-04-03 02:40:00,
2013-04-02 22:45:00,35.2,24.6,30.18,WNW,296,0.0,0.0,65,0.00,,---,0.00,VWS V14.01,2013-04-03 02:45:00,
2013-04-02 22:50:00,34.7,24.5,30.18,WNW,296,0.0,0.0,66,0.00,,---,0.00,VWS V14.01,2013-04-03 02:50:00,
2013-04-02 22:55:00,34.3,24.5,30.18,WNW,296,0.0,0.0,67,0.00,,---,0.00,VWS V14.01,2013-04-03 02:55:00,
2013-04-02 23:00:00,33.9,24.5,30.19,WNW,296,0.0,0.0,68,0.00,,---,0.00,VWS V14.01,2013-04-03 03:00:00,
2013-04-02 23:05:00,33.6,24.9,30.19,WNW,296,0.0,0.0,70,0.00,,---,0.00,VWS V14.01,2013-04-03 03:05:00,
2013-04-02 23:11:00,33.3,24.9,30.19,WNW,296,0.0,0.0,71,0.00,,---,0.00,VWS V14.01,2013-04-03 03:11:00,
2013-04-02 23:16:00,33.1,24.7,30.19,WNW,296,0.0,0.0,71,0.00,,---,0.00,VWS V14.01,2013-04-03 03:16:00,
2013-04-02 23:21:00,32.9,25.2,30.19,WNW,296,0.0,0.0,73,0.00,,---,0.00,VWS V14.01,2013-04-03 03:21:00,
2013-04-02 23:26:00,32.5,25.1,30.19,WNW,296,0.0,0.0,74,0.00,,---,0.00,VWS V14.01,2013-04-03 03:26:00,
2013-04-02 23:30:00,32.4,25.0,30.19,WNW,296,0.0,0.0,74,0.00,,---,0.00,VWS V14.01,2013-04-03 03:30:00,
2013-04-02 23:31:00,32.2,24.9,30.19,WNW,296,0.0,0.0,74,0.00,,---,0.00,VWS V14.01,2013-04-03 03:31:00,
2013-04-02 23:36:00,32.0,25.0,30.19,WNW,296,0.0,0.0,75,0.00,,---,0.00,VWS V14.01,2013-04-03 03:36:00,
2013-04-02 23:42:00,31.6,24.9,30.19,WNW,296,0.0,0.0,76,0.00,,---,0.00,VWS V14.01,2013-04-03 03:42:00,
2013-04-02 23:47:00,31.2,24.2,30.20,WNW,296,0.0,0.0,75,0.00,,---,0.00,VWS V14.01,2013-04-03 03:47:00,
2013-04-02 23:52:00,31.1,24.1,30.20,WNW,296,0.0,0.0,75,0.00,,---,0.00,VWS V14.01,2013-04-03 03:52:00,
2013-04-02 23:57:00,31.2,24.5,30.20,WNW,296,0.0,0.0,76,0.00,,---,0.00,VWS V14.01,2013-04-03 03:57:00,